Miscellaneous Local Product
Issued by NWS North Platte, NE

Home | Current Version | Previous Version | Text Only | Print | Product List | Glossary On
Versions: 1 2 3 4 5 6 7 8 9 10 11 12 13 14 15 16 17 18 19 20 21 22 23 24 25 26 27 28 29 30 31 32 33 34 35 36 37 38 39 40 41 42 43 44 45 46 47 48 49 50
079
AXUS43 KLBF 140910
MISLBF


WESTERN AND NORTH CENTRAL NEBRASKA HOURLY WEATHER ROUNDUP
NATIONAL WEATHER SERVICE NORTH PLATTE NE
300 AM CST SUN FEB 14 2016

NOTE: "FAIR" INDICATES FEW OR NO CLOUDS BELOW 12,000 FEET WITH NO
SIGNIFICANT WEATHER AND/OR OBSTRUCTIONS TO VISIBILITY.

NOTE: STATIONS NOT REPORTING VARIABLES SUCH AS SKY/WEATHER OR
PRESSURE ARE PROVIDED BY THE NEBRASKA DEPARTMENT OF
ROADS...RAWS...AND APRS NETWORKS...AND ARE NOT UNDER
NATIONAL WEATHER SERVICE QUALITY CONTROL.

...OBSERVATIONS IN AND NEAR THE EASTERN PANHANDLE OF NEBRASKA...

CITY           SKY/WX    TMP DP  RH WIND       PRES   REMARKS
PINE RIDGE     CLEAR     33  27  78 W12       29.94S WCI  24
CHADRON        CLEAR     30  24  78 SW7       29.98S WCI  23
ALLIANCE       CLEAR     32  24  72 W15       29.97F WCI  22
SIDNEY         CLEAR     32  25  75 NW13      30.00F WCI  22
CRESCENT LAKE    N/A     36  24  61 NW16G24     N/A  WCI  26
$$

...OBSERVATIONS IN NORTH CENTRAL NEBRASKA...

CITY           SKY/WX    TMP DP  RH WIND       PRES   REMARKS
VALENTINE      CLOUDY    38  32  79 W16       29.86R WCI  29
THEDFORD       PTCLDY    36  32  85 W16G22    29.90S WCI  26
AINSWORTH      CLOUDY    37  33  85 W17G23    29.83S WCI  28
O`NEILL        LGT SNOW  28  26  94 SW3       29.81F
ORD            CLOUDY    32  28  85 SW12      29.85F WCI  23
BROKEN BOW     PTCLDY    32  30  92 W10       29.89S WCI  24
VALENTINE NWR    N/A     37  32  82 W15G22      N/A  WCI  28
BUTTE            N/A     19  17  91 SE3         N/A
HALSEY           N/A     37  32  83 W13G20      N/A  WCI  29
CHAMBERS         N/A     30  30  99 SW3         N/A
EWING            N/A     19  17  93 S3          N/A
$$

...OBSERVATIONS IN SOUTHWEST NEBRASKA AND FAR NORTHEAST COLORADO...

CITY           SKY/WX    TMP DP  RH WIND       PRES   REMARKS
WRAY           FAIR      32  26  78 W8        30.02F WCI  25
HOLYOKE        FAIR      37  28  70 NW14      30.01S WCI  29
IMPERIAL       CLEAR     34  27  75 NW14      29.99F WCI  25
OGALLALA       CLEAR     35  28  74 W15       29.98F WCI  25
NORTH PLATTE   CLEAR     33  28  81 W15       29.93F WCI  23
MCCOOK         CLEAR     32  27  81 W12       29.97F WCI  23
LEXINGTON      CLEAR     26  23  85 W5        29.93F WCI  21
STAPLETON        N/A     32  30  92 W3          N/A
$$

...OBSERVATIONS IN CENTRAL LINCOLN COUNTY AREA...

CITY           SKY/WX    TMP DP  RH WIND       PRES   REMARKS
N.P. AIRPORT   CLEAR     33  28  81 W15       29.93F WCI  23
N.P. DOWNTOWN    N/A     35  32  89 W7G15       N/A  WCI  29
N.P. SOUTHEAST   N/A     36  30  79 NW7G16      N/A  WCI  30
N.P. HILLCREST   N/A     32  29  90 NW7         N/A  WCI  26
$$

...SOME OBSERVATIONS FROM AROUND THE REGION...

CITY           SKY/WX    TMP DP  RH WIND       PRES   REMARKS
DENVER         CLEAR     30  24  78 SE13      30.01F WCI  20
LARAMIE        CLOUDY    31  15  52 SW21G29   30.01F WCI  18
CHEYENNE       CLEAR     32  15  49 NW9       29.98F WCI  24
SCOTTSBLUFF    CLEAR     30  24  78 W8        30.01F WCI  22
RAPID CITY     CLEAR     37  26  64 NW17      29.86F WCI  27
BISMARCK       CLOUDY    21  18  88 SE3       29.79S FOG
PIERRE         CLOUDY    24  23  96 SE6       29.80S FOG     WCI  17
WINNER         CLOUDY    34  31  88 NW7       29.80S WCI  28
SIOUX FALLS    CLOUDY    14   8  77 SE15      29.95F WCI  -1
OMAHA          LGT SNOW  20   7  57 SE24      30.05F WCI   3
GRAND ISLAND   CLOUDY    20  11  68 SW22      29.94F WCI   3
KANSAS CITY    CLOUDY    23   6  48 E10       30.09F WCI  12
WICHITA        CLOUDY    36  17  46 N16       30.02R WCI  26
OKLAHOMA CITY  PTCLDY    46  38  73 S16       29.88F
LIBERAL        CLOUDY    30  21  69 N20       29.99R WCI  18
HAYS           CLOUDY    23   9  54 N6        30.02S WCI  16
GOODLAND       CLEAR     31  26  82 NW13      30.01F WCI  21
$$




USA.gov is the U.S. government's official web portal to all federal, state and local government web resources and services.